This is the latest recevied weather packets stored in our database for station/object W8CWV-13. If no packets are shown the sender has not sent any weather packets the latest 10 day(s).
| Time | Temp. | Humidity | Pressure | Rain* | Wind** | Luminosity | Snow |
|---|---|---|---|---|---|---|---|
| 1777589710 | 12.22° C | 100% | 1021.9 hPa | - | - | - | - |
| 1777589140 | 12.78° C | 100% | 1021.8 hPa | - | - | - | - |
| 1777588568 | 12.78° C | 100% | 1021.5 hPa | - | - | - | - |
| 1777587998 | 13.33° C | 100% | 1021.8 hPa | - | - | - | - |
| 1777587424 | 13.33° C | 100% | 1021.9 hPa | - | - | - | - |
| 1777586852 | 13.33° C | 100% | 1021.7 hPa | - | - | - | - |
| 1777586281 | 13.33° C | 100% | 1021.2 hPa | - | - | - | - |
| 1777585714 | 13.89° C | 100% | 1021.4 hPa | - | - | - | - |
| 1777585136 | 13.89° C | 100% | 1021.3 hPa | - | - | - | - |
| 1777584564 | 13.89° C | 100% | 1021.1 hPa | - | - | - | - |
| 1777583992 | 14.44° C | 100% | 1021 hPa | - | - | - | - |
| 1777583420 | 15.56° C | 100% | 1020.5 hPa | - | - | - | - |
| 1777582850 | 15° C | 100% | 1020.5 hPa | - | - | - | - |
| 1777582273 | 15.56° C | 100% | 1018.7 hPa | - | - | - | - |
| 1777581704 | 17.78° C | 100% | 1018.9 hPa | - | - | - | - |
| 1777581129 | 18.33° C | 100% | 1018.7 hPa | - | - | - | - |
| 1777580557 | 18.33° C | 100% | 1018.4 hPa | - | - | - | - |
| 1777579982 | 17.78° C | 100% | 1018.4 hPa | - | - | - | - |
| 1777579413 | 17.78° C | 100% | 1019 hPa | - | - | - | - |
| 1777578844 | 21.11° C | 100% | 1018.1 hPa | - | - | - | - |
| 1777578266 | 20° C | 100% | 1017.6 hPa | - | - | - | - |
| 1777577688 | 17.22° C | 100% | 1018.3 hPa | - | - | - | - |
| 1777577116 | 17.78° C | 100% | 1019.5 hPa | - | - | - | - |
| 1777576539 | 18.89° C | 100% | 1019.5 hPa | - | - | - | - |
| 1777575971 | 20° C | 100% | 1019.7 hPa | - | - | - | - |
* Rain since midnight (hover to see other rain measurements)
** Current wind speed in m/s (hover to see current wind gust speed)